Weather History for Watonga, OK

Change the Weather History Date:

Sunday, July 7, 2013

  Actual Average Record
Temperature  
Mean Temperature 84 °F -  
Max Temperature 96 °F 94 °F 106 °F (1970)
Min Temperature 74 °F 70 °F 60 °F (1985)
Cooling Degree Days 20    
Growing Degree Days 34 (Base 50)    
Moisture  
Dew Point 65 °F    
Average Humidity 53    
Maximum Humidity 69    
Minimum Humidity 34    
Precipitation  
Precipitation 0.00 in - - ()
Sea Level Pressure  
Sea Level Pressure 29.98 in    
Wind  
Wind Speed - (North)    
Max Wind Speed -    
Max Gust Speed -    
Visibility 10 miles    
Events      
Averages and records for this station are not official NWS values.
T = Trace of Precipitation, MM = Missing Value Source: NWS Daily Summary

Daily Weather History Graph

Daily Weather History Graph

Search for Another Location

Airport:

Trip Planner

Search our weather history database for the weather conditions in past years. The results will help you decide how hot, cold, wet, or windy it might be!

Date:

Astronomy

Jul. 07, 2013 Rise Set
Actual Time 6:24 AM CDT 8:52 PM CDT
Civil Twilight 5:54 AM CDT 9:22 PM CDT
Nautical Twilight 5:17 AM CDT 9:59 PM CDT
Astronomical Twilight 4:36 AM CDT 10:40 PM CDT
Moon 5:59 AM CDT (7/7) 8:20 PM CDT (7/7)
Length of Visible Light 15h 28m
Length of Day
14h 28m
Waning Crescent, 0% of the Moon is Illuminated
Jul 7
Waning Crescent
Jul 8
New
Jul 15
First Quarter
Jul 22
Full
Jul 29
Last Quarter

Hourly Weather History & Observations

Time (CDT) Temp. Heat Index Dew Point Humidity Pressure Visibility Wind Dir Wind Speed Gust Speed Precip Events Conditions
12:15 AM 80.6 °F 82.4 °F 65.3 °F 59% 29.96 in 10.0 mi North - - N/A   Clear
12:35 AM 80.1 °F 82.0 °F 65.5 °F 61% 29.96 in 10.0 mi North - - N/A   Clear
12:55 AM 79.7 °F - 65.3 °F 61% 29.96 in 10.0 mi North - - N/A   Clear
1:15 AM 78.8 °F - 65.3 °F 63% 29.96 in 10.0 mi North - - N/A   Clear
1:35 AM 78.6 °F - 65.3 °F 64% 29.96 in 10.0 mi North - - N/A   Mostly Cloudy
1:55 AM 79.0 °F - 64.9 °F 62% 29.96 in 10.0 mi North - - N/A   Mostly Cloudy
2:15 AM 79.0 °F - 64.8 °F 62% 29.96 in 10.0 mi North - - N/A   Scattered Clouds
2:35 AM 78.8 °F - 64.6 °F 62% 29.96 in 10.0 mi North - - N/A   Clear
2:55 AM 78.8 °F - 64.4 °F 61% 29.95 in 10.0 mi North - - N/A   Clear
3:15 AM 78.3 °F - 64.2 °F 62% 29.95 in 10.0 mi North - - N/A   Clear
3:35 AM 77.9 °F - 63.9 °F 62% 29.94 in 10.0 mi North - - N/A   Clear
3:55 AM 77.4 °F - 63.9 °F 63% 29.94 in 10.0 mi North - - N/A   Clear
4:15 AM 77.0 °F - 63.9 °F 64% 29.95 in 10.0 mi North - - N/A   Clear
4:35 AM 76.3 °F - 63.7 °F 65% 29.95 in 10.0 mi North - - N/A   Clear
4:55 AM 75.9 °F - 63.9 °F 66% 29.95 in 10.0 mi North - - N/A   Clear
5:15 AM 75.7 °F - 64.0 °F 67% 29.95 in 10.0 mi North - - N/A   Clear
5:35 AM 75.6 °F - 63.9 °F 67% 29.95 in 10.0 mi North - - N/A   Clear
5:55 AM 75.4 °F - 63.9 °F 67% 29.96 in 10.0 mi North - - N/A   Clear
6:15 AM 75.2 °F - 63.9 °F 68% 29.96 in 10.0 mi North - - N/A   Clear
6:35 AM 74.7 °F - 63.7 °F 69% 29.97 in 10.0 mi North - - N/A   Clear
6:55 AM 74.7 °F - 63.7 °F 69% 29.98 in 10.0 mi North - - N/A   Clear
7:15 AM 75.4 °F - 63.7 °F 67% 29.98 in 10.0 mi North - - N/A   Clear
7:35 AM 76.1 °F - 63.7 °F 65% 29.99 in 10.0 mi North - - N/A   Clear
7:55 AM 76.5 °F - 63.9 °F 65% 29.99 in 10.0 mi North - - N/A   Clear
8:15 AM 76.8 °F - 63.9 °F 64% 30.00 in 10.0 mi North - - N/A   Clear
8:35 AM 77.4 °F - 64.2 °F 64% 30.00 in 10.0 mi North - - N/A   Clear
8:55 AM 78.4 °F - 64.9 °F 63% 30.01 in 10.0 mi North - - N/A   Clear
9:15 AM 79.9 °F - 65.5 °F 61% 30.01 in 10.0 mi North - - N/A   Clear
9:35 AM 80.6 °F 82.5 °F 65.5 °F 60% 30.01 in 10.0 mi North - - N/A   Clear
9:55 AM 81.7 °F 83.8 °F 66.2 °F 59% 30.01 in 10.0 mi North - - N/A   Clear
10:15 AM 83.1 °F 85.4 °F 66.4 °F 57% 30.01 in 10.0 mi North - - N/A   Clear
10:35 AM 83.7 °F 86.0 °F 66.2 °F 56% 30.01 in 10.0 mi North - - N/A   Clear
10:55 AM 85.1 °F 87.7 °F 66.7 °F 54% 30.01 in 10.0 mi North - - N/A   Clear
11:15 AM 86.5 °F 89.3 °F 67.1 °F 52% 30.00 in 10.0 mi North - - N/A   Clear
11:35 AM 87.8 °F 90.4 °F 66.2 °F 49% 30.00 in 10.0 mi North - - N/A   Clear
11:55 AM 88.9 °F 91.4 °F 66.0 °F 47% 30.00 in 10.0 mi North - - N/A   Clear
12:15 PM 89.4 °F 91.9 °F 66.4 °F 46% 30.00 in 10.0 mi North - - N/A   Clear
12:35 PM 90.7 °F 93.6 °F 66.9 °F 45% 30.00 in 10.0 mi North - - N/A   Clear
12:55 PM 92.3 °F 95.1 °F 66.0 °F 42% 29.99 in 10.0 mi North - - N/A   Clear
1:15 PM 92.8 °F 94.7 °F 64.8 °F 39% 29.99 in 10.0 mi North - - N/A   Clear
1:35 PM 93.7 °F 95.3 °F 64.0 °F 37% 29.99 in 10.0 mi North - - N/A   Clear
1:55 PM 94.3 °F 97.2 °F 65.8 °F 39% 29.99 in 10.0 mi North - - N/A   Clear
2:15 PM 95.2 °F 98.3 °F 66.0 °F 38% 29.98 in 10.0 mi North - - N/A   Clear
2:35 PM 95.2 °F 97.3 °F 64.4 °F 36% 29.98 in 10.0 mi North - - N/A   Clear
2:55 PM 95.0 °F 97.4 °F 65.3 °F 37% 29.98 in 10.0 mi North - - N/A   Clear
3:15 PM 95.0 °F 97.4 °F 65.1 °F 37% 29.98 in 10.0 mi North - - N/A   Clear
3:35 PM 95.4 °F 98.1 °F 65.7 °F 37% 29.97 in 10.0 mi North - - N/A   Clear
3:55 PM 95.4 °F 97.6 °F 64.8 °F 36% 29.97 in 10.0 mi North - - N/A   Clear
4:15 PM 95.2 °F 97.8 °F 64.8 °F 37% 29.97 in 10.0 mi North - - N/A   Clear
4:35 PM 95.5 °F 98.4 °F 65.3 °F 37% 29.97 in 10.0 mi North - - N/A   Clear
4:55 PM 95.4 °F 97.6 °F 64.8 °F 36% 29.97 in 10.0 mi North - - N/A   Clear
5:15 PM 95.0 °F 97.0 °F 64.2 °F 36% 29.96 in 10.0 mi North - - N/A   Clear
5:35 PM 95.4 °F 96.6 °F 63.0 °F 34% 29.95 in 10.0 mi North - - N/A   Clear
5:55 PM 95.2 °F 98.3 °F 66.0 °F 38% 29.94 in 10.0 mi North - - N/A   Clear
6:15 PM 94.3 °F 97.7 °F 66.7 °F 40% 29.94 in 10.0 mi North - - N/A   Clear
6:35 PM 93.7 °F 96.7 °F 66.4 °F 40% 29.95 in 10.0 mi North - - N/A   Clear
6:55 PM 93.0 °F 95.9 °F 65.8 °F 41% 29.95 in 10.0 mi North - - N/A   Clear
7:15 PM 92.3 °F 94.3 °F 64.9 °F 40% 29.95 in 10.0 mi North - - N/A   Clear
7:35 PM 91.4 °F 93.2 °F 64.9 °F 41% 29.95 in 10.0 mi North - - N/A   Clear
7:55 PM 90.5 °F 92.2 °F 64.8 °F 42% 29.96 in 10.0 mi North - - N/A   Clear
8:15 PM 89.6 °F 91.1 °F 64.4 °F 43% 29.97 in 10.0 mi North - - N/A   Clear
8:35 PM 88.3 °F 89.9 °F 64.2 °F 45% 29.97 in 10.0 mi North - - N/A   Clear
8:55 PM 87.1 °F 88.6 °F 64.6 °F 47% 29.98 in 10.0 mi North - - N/A   Clear
9:15 PM 86.2 °F 87.9 °F 64.9 °F 49% 29.99 in 10.0 mi North - - N/A   Clear
9:35 PM 85.1 °F 86.9 °F 65.3 °F 51% 29.99 in 10.0 mi North - - N/A   Clear
9:55 PM 84.6 °F 86.3 °F 65.3 °F 52% 30.00 in 10.0 mi North - - N/A   Clear
10:15 PM 83.7 °F 85.5 °F 65.5 °F 54% 30.00 in 10.0 mi North - - N/A   Clear
10:35 PM 82.6 °F 84.5 °F 65.7 °F 56% 30.00 in 10.0 mi North - - N/A   Clear
10:55 PM 81.5 °F 83.7 °F 66.2 °F 60% 30.01 in 10.0 mi North - - N/A   Clear
11:15 PM 80.8 °F 82.9 °F 66.2 °F 61% 30.02 in 10.0 mi North - - N/A   Clear
11:35 PM 80.6 °F 82.7 °F 66.0 °F 61% 30.02 in 10.0 mi North - - N/A   Clear
11:55 PM 80.6 °F 82.7 °F 65.8 °F 61% 30.02 in 10.0 mi North - - N/A   Clear